17.07.2024;19:00;79
17.07.2024;18:00;77
17.07.2024;17:00;76
17.07.2024;16:00;71
17.07.2024;15:00;70
17.07.2024;14:00;69
17.07.2024;13:00;65
17.07.2024;12:00;61
17.07.2024;11:00;56
17.07.2024;10:00;45
17.07.2024;09:00;44
17.07.2024;08:00;49
17.07.2024;07:00;56
17.07.2024;06:00;53
17.07.2024;05:00;59
17.07.2024;04:00;66
17.07.2024;03:00;62
17.07.2024;02:00;47
17.07.2024;01:00;44
17.07.2024;00:00;49
16.07.2024;23:00;50
16.07.2024;22:00;57
16.07.2024;21:00;55
16.07.2024;20:00;71
16.07.2024;19:00;77
16.07.2024;18:00;59
16.07.2024;17:00;73
16.07.2024;16:00;68
16.07.2024;15:00;63
16.07.2024;14:00;63
16.07.2024;13:00;54
16.07.2024;12:00;50
16.07.2024;11:00;52
16.07.2024;10:00;55
16.07.2024;09:00;61
16.07.2024;08:00;57
16.07.2024;07:00;89
16.07.2024;06:00;95
16.07.2024;05:00;93
16.07.2024;04:00;82
16.07.2024;03:00;86
16.07.2024;02:00;103
16.07.2024;01:00;104
16.07.2024;00:00;105
15.07.2024;23:00;103
15.07.2024;22:00;104
15.07.2024;21:00;102
15.07.2024;20:00;101
